sat.trackr.live / text

‹ back to catalog

GLOBALSTAR M078

NORAD 39076 · 2013-005E

PAYLOAD ACTIVE UNKNOWN

§ Identity

Operator
Country
GLOB
Launch date
2013-02-06
Launch site
TYMSC
Launch vehicle
Mass (kg)
RCS (m²)
4.34

Purposes: comms

External: N2YO · Heavens-Above · Gunter

§ Orbital elements

Epoch: 2026-09-19T12:14:52.688256Z

Period
114.08 min
Inclination
51.9902°
Eccentricity
0.0001494
Mean motion
12.62258511 rev/d
Perigee alt
1,412.5 km
Apogee alt
1,414.8 km
Semi-major
7,791.8 km
B*
-3.1152e-4
RAAN
356.3715°
Arg perigee
110.5301°
Mean anomaly
249.5726°
Rev number
62,792

§ Raw data

GLOBALSTAR M0781 39076U 13005E   26262.51033204 -.00000160  00000+0 -31152-3 0  99932 39076  51.9902 356.3715 0001494 110.5301 249.5726 12.62258511627926

JSON: /api/v1/satellites/39076 · /tle

For live sub-satellite position, see the globe view (requires WebGL).

§ Visibility from observer

Set your observer location to see the next 7 days of passes ≥ 10°. The values pass through the URL so the page stays shareable.

No JS? Fill the form by hand. The geolocation button needs JavaScript.